Lapse_Rate
6.2 5.7 5.4 5.4 5.6 5.4 5.3 5.1 5.0 5.0 4.7 4.7 4.8 4.9 4.8 4.7 4.9 4.9 4.9 4.8 4.7 4.6 4.6 4.6 4.5 4.4 4.4
5.6 5.4 5.2 5.2 5.1 5.0 5.1 4.9 5.1 5.0 4.8 4.8 4.8 4.8 4.9 4.8 4.8 4.9 4.9 5.0 5.0 4.9 4.9 4.8 4.7 4.7 4.6
5.6 5.2 5.0 5.0 4.9 5.0 4.9 5.0 5.1 4.9 4.6 4.6 4.5 4.5 4.6 4.3 4.6 4.7 4.8 4.8 4.9 4.9 5.0 4.8 4.7 4.8 4.7
5.4 5.4 5.0 4.8 4.8 4.9 4.9 5.1 4.9 4.5 4.3 4.3 4.3 4.3 4.3 4.3 4.4 5.0 4.7 4.7 4.9 4.8 4.8 4.9 4.8 4.7 4.5
5.3 5.4 5.2 5.3 5.4 5.3 5.0 4.8 4.6 4.5 4.4 4.4 4.4 4.3 4.2 4.7 4.8 5.0 4.8 5.0 5.0 5.0 4.9 4.9 4.8 4.6 4.6
5.5 5.3 5.4 5.6 5.3 5.1 5.0 4.9 4.6 4.5 4.2 4.3 4.4 4.6 4.6 4.7 4.9 4.8 5.1 4.9 5.0 4.9 4.9 4.9 4.7 4.4 4.5
5.2 5.3 5.3 5.5 5.3 4.9 4.8 4.8 4.8 4.7 4.8 4.8 4.8 4.8 4.9 4.9 5.0 4.8 4.9 5.0 4.7 4.8 5.0 4.5 4.7 4.9 4.8
5.6 5.7 5.6 5.5 5.6 5.2 5.0 5.0 4.8 4.6 5.1 5.0 5.1 4.9 4.9 4.8 4.8 5.0 5.0 5.1 5.1 5.0 5.0 5.0 4.7 4.5 4.5
5.6 5.4 5.4 5.4 5.8 5.4 5.1 5.3 5.2 5.0 5.0 4.7 5.1 5.2 5.0 4.9 4.9 5.0 5.1 5.0 5.0 5.0 5.3 5.1 4.6 4.2 4.2
5.5 5.4 5.7 5.9 5.8 5.6 5.5 5.5 5.4 5.2 5.2 5.2 5.2 5.1 4.9 5.0 5.0 5.2 5.0 4.9 5.0 5.1 4.9 4.5 4.3 4.5 4.9
5.6 5.5 5.7 5.9 5.8 5.6 5.6 5.5 5.6 5.0 5.0 5.1 4.9 4.8 5.0 4.8 5.0 4.9 4.9 4.8 5.0 5.0 4.8 4.4 4.3 4.5 4.6
5.3 5.5 5.4 5.6 5.4 5.7 5.5 5.3 4.9 5.1 4.9 4.8 4.8 5.0 5.0 4.7 4.9 5.0 5.1 5.0 5.0 5.0 4.7 4.7 4.8 4.7 4.7
5.9 5.4 5.7 5.6 5.4 5.5 5.5 5.2 5.1 5.1 5.0 4.7 4.8 4.9 4.9 4.8 4.6 4.5 4.7 4.8 4.7 4.8 5.0 5.1 4.9 5.0 5.0
5.6 5.7 6.0 5.9 5.9 5.9 5.6 5.4 5.1 5.4 5.2 5.0 5.0 5.0 5.0 4.9 4.9 4.7 4.8 5.0 4.9 5.1 5.0 5.1 5.1 5.1 5.1
6.0 6.2 6.0 5.9 6.0 6.0 5.8 5.4 5.1 5.4 5.3 5.2 5.0 5.1 5.0 4.8 4.9 4.9 5.0 5.0 5.1 5.0 5.0 5.2 5.2 5.2 5.3
5.9 6.1 6.0 5.8 5.8 5.9 5.7 5.5 5.3 5.3 5.1 5.2 4.9 4.8 5.0 4.9 5.0 5.1 5.1 5.2 5.2 5.3 5.3 5.2 5.1 5.2 5.2
5.9 5.9 5.7 5.6 6.0 5.5 5.6 5.4 5.5 5.3 5.2 5.1 5.1 5.0 5.3 5.3 5.2 5.2 5.3 5.3 5.5 5.5 5.4 5.3 5.2 5.1 5.4
Wind_Speed
4 6 7 10 11 18 17 19 18 28 31 32 34 32 33 31 28 27 25 23 22 21 28 28 30 33 32
5 4 5 7 9 10 14 16 16 20 29 30 29 30 31 30 27 25 26 25 25 24 23 25 29 32 32
4 2 2 2 3 2 4 9 15 19 23 26 27 27 28 27 24 23 23 25 26 27 27 26 24 24 29
4 3 3 2 3 4 4 3 6 10 14 17 20 24 25 23 23 24 25 24 23 23 23 23 24 24 22
5 3 4 3 8 3 4 3 5 4 5 5 10 11 15 22 20 21 22 22 22 22 22 21 23 24 24
11 10 10 7 4 6 6 4 3 8 6 6 11 6 12 16 19 20 21 22 23 23 22 22 22 23 23
13 11 12 10 7 5 7 5 5 3 3 4 3 5 8 14 18 21 20 20 20 19 20 20 21 22 25
14 13 12 10 12 9 7 4 3 2 3 3 3 4 3 9 10 11 11 14 17 18 19 19 21 21 24
16 13 16 16 13 7 5 4 3 4 4 4 3 2 1 3 10 10 7 5 7 13 14 17 18 19 20
9 6 10 13 22 11 9 7 3 1 5 6 3 3 2 1 2 8 6 7 8 9 12 14 13 11 10
12 10 8 8 8 8 9 8 4 3 6 4 3 3 1 1 1 2 5 4 6 6 8 12 15 16 4
9 9 8 8 8 8 8 6 4 3 13 8 4 4 4 2 2 2 2 4 3 1 3 6 17 19 15
8 6 8 7 6 5 6 11 8 5 8 6 3 4 2 2 3 3 3 2 4 2 1 1 2 5 3
7 3 4 4 3 3 3 3 3 2 6 5 6 5 3 2 2 2 2 2 2 2 1 1 1 1 2
4 5 4 4 2 4 3 4 3 5 3 2 6 8 3 4 2 2 3 2 1 2 2 1 1 4 6
6 7 7 7 6 4 2 4 4 3 3 2 3 2 2 3 3 2 2 2 2 2 1 1 1 2 8
6 7 6 6 8 6 6 5 3 4 3 3 3 2 3 3 1 4 2 2 2 2 2 2 1 1 2
Wind_Direction
192 190 191 202 201 207 209 210 219 225 227 231 236 241 248 252 253 256 253 257 261 254 236 238 234 231 227
185 190 193 202 200 198 207 215 217 228 230 229 232 240 245 251 254 256 257 252 253 252 254 256 247 246 243
183 141 168 161 151 164 185 208 215 225 230 233 235 237 240 245 252 257 258 255 253 253 252 255 256 255 253
161 160 169 178 142 187 213 200 216 206 221 224 229 234 238 244 251 254 257 259 258 258 259 258 259 254 251
192 159 167 167 199 166 197 166 228 195 210 221 218 221 234 239 239 249 255 252 255 257 256 253 254 253 245
200 202 198 198 161 189 183 155 242 194 196 238 186 220 225 221 234 239 249 254 256 255 257 253 253 250 239
198 200 205 200 151 149 183 179 194 172 153 233 164 229 224 223 228 238 241 244 249 257 256 252 249 246 235
205 204 211 182 185 195 190 187 72 141 141 206 171 222 193 219 211 215 229 242 250 250 249 248 246 240 223
205 187 179 170 176 141 153 151 194 211 187 166 203 195 218 213 212 212 214 235 254 248 252 252 246 236 205
196 188 175 179 167 185 169 180 140 160 212 177 152 149 270 210 225 213 230 253 262 251 242 247 239 191 179
193 192 180 177 176 189 179 177 170 203 179 135 155 142 134 207 269 199 210 225 242 248 246 239 213 183 179
178 181 181 181 184 186 183 171 169 177 171 152 158 161 161 156 208 179 229 229 228 261 248 237 208 203 198
172 175 185 177 122 94 76 100 80 70 146 164 137 143 139 163 168 175 154 215 202 210 226 207 216 190 167
172 130 109 132 139 137 134 143 117 109 53 85 151 139 147 144 126 146 160 189 167 198 210 185 205 322 124
140 144 148 151 130 151 119 140 139 156 146 91 86 94 60 128 145 159 151 182 196 154 159 221 237 219 241
142 156 162 165 157 149 119 162 155 142 129 128 136 103 87 50 38 134 143 154 151 148 104 188 296 211 242
147 152 149 151 149 161 147 136 116 121 122 133 152 130 139 171 97 26 136 133 134 150 167 170 260 333 341